Location: Gugi
(45.4667°N, 11.1000°E)
Time: 00:03:37
(UTC+00:00)

USA 229 DEB - Pass Details

Date: 17 November 2019
Orbit: 997 x 1215 km, 63.4° (Epoch: 02 December)

Event Time Altitude Azimuth Distance (km) Brightness Sun altitude
Rises 16:32:29 0° 215° (SW) 3,718 7.5 -8.7°
Reaches altitude 10° 16:35:01 10° 216° (SW) 2,785 6.8 -9.1°
Maximum altitude 16:41:35 89° 127° (SE) 1,046 3.7 -10.2°
Drops below altitude 10° 16:48:30 10° 39° (NE) 2,927 5.5 -11.4°
Enters shadow 16:49:13 - 39° (NE) 3,190 5.7 -11.5°
